Miscellaneous Local Product
Issued by NWS Hastings, NE

Home | Current Version | Previous Version | Text Only | Print | Product List | Glossary Off
Versions: 1 2 3 4 5 6 7 8 9 10 11 12 13 14 15 16 17 18 19 20 21 22 23 24 25 26 27 28 29 30 31 32 33 34 35 36 37 38 39 40 41 42 43 44 45 46 47 48 49 50

000
AXUS43 KGID 250302
MISGRI

GID CWA HOURLY WEATHER ROUNDUP
NATIONAL WEATHER SERVICE HASTINGS NE
1000 PM CDT FRI OCT 24 2014

NOTE: "FAIR" INDICATES FEW OR NO CLOUDS BELOW 12,000 FEET WITH NO
SIGNIFICANT WEATHER AND/OR OBSTRUCTIONS TO VISIBILITY.

...SOUTH CENTRAL NEBRASKA...

CITY           SKY/WX    TMP DP  RH WIND       PRES   REMARKS
GRAND ISLAND   CLEAR     54  46  74 CALM      30.02R
HASTINGS       CLEAR     57  46  66 CALM      30.02R
KEARNEY        CLEAR     55  45  67 CALM      30.03R
ORD            CLEAR     46  40  79 CALM      30.02R
YORK           CLEAR     54  48  82 MISG      30.01S
AURORA         CLEAR     52  46  82 CALM      30.01S
LEXINGTON      CLEAR     53  41  63 CALM      30.04R
HOLDREGE       CLEAR     58  39  49 CALM      30.02S
HEBRON         CLEAR     56  49  79 CALM      30.00S

...NEBRASKA PANHANDLE...

CITY           SKY/WX    TMP DP  RH WIND       PRES   REMARKS
CHADRON        CLEAR     46  36  68 CALM      30.08R
ALLIANCE       CLEAR     45  35  68 N5        30.08R
SCOTTSBLUFF    CLEAR     55  32  41 SW5       30.09R
SIDNEY         CLEAR     48  35  60 SW10      30.13R

...WESTERN AND NORTH CENTRAL NEBRASKA...

CITY           SKY/WX    TMP DP  RH WIND       PRES   REMARKS
VALENTINE      CLEAR     51  35  54 CALM      30.04R
AINSWORTH      CLEAR     52  37  56 E3        30.04R
ONEILL         CLEAR     58  39  49 CALM      30.03S
BROKEN BOW     CLEAR     48  40  73 N5        30.04R
IMPERIAL       CLEAR     59  35  40 SW5       30.07R
NORTH PLATTE   CLEAR     51  41  68 SW6       30.05R
MCCOOK         CLEAR     58  36  43 SW10      30.04R

...EASTERN NEBRASKA...

CITY           SKY/WX    TMP DP  RH WIND       PRES   REMARKS
NORFOLK        CLEAR     50  45  83 W3        30.01R
SO SIOUX CITY  CLEAR     50  45  83 W3        29.99R
TEKAMAH        CLEAR     54  48  80 CALM      29.99R
COLUMBUS       CLEAR     52  45  76 NW3       30.02R
ALBION         CLEAR     50  42  74 NW3       30.03R
OMAHA EPPLEY   CLEAR     57  55  93 CALM      29.99R
OFFUTT AFB     CLEAR     55  55 100 CALM      29.98R
MILLARD        CLEAR     57  55  95 CALM      29.98R FOG
LINCOLN        CLEAR     57  51  80 NW3       30.01R
NEBRASKA CITY  CLEAR     64  55  72 N3        29.99R
BEATRICE       CLEAR     55  53  91 CALM      29.99R
FALLS CITY     CLEAR     65  60  84 CALM      29.97R

...NORTHERN KANSAS...

CITY           SKY/WX    TMP DP  RH WIND       PRES   REMARKS
GOODLAND       CLEAR     57  33  40 S8        30.11R
HILL CITY      CLEAR     56  45  66 W3        30.03R
NORTON         CLEAR     55  34  44 SW5       30.02
PHILLIPSBURG   CLEAR     59  50  72 W6        30.01R
SMITH CENTER   CLEAR     57  46  67 N5        30.01R
BELOIT         CLEAR     55  50  82 NE5       29.98R
HAYS           CLEAR     63  48  59 SW6       30.02R
RUSSELL        CLEAR     65  55  70 S10       30.00R
CONCORDIA      CLEAR     60  53  77 SE6       29.99R
SALINA         CLEAR     66  59  78 S10       29.99R
TOPEKA         CLEAR     63  60  90 CALM      29.97R



USA.gov is the U.S. government's official web portal to all federal, state and local government web resources and services.